RH
90 81 61 57 47 43 35 39 42 50 58 51 49 62 66 61 55 49 53 41 38 41 38 33 35 33 29 26 25 23 23 27 31 67 93 89 87 78 74 85 88 96 88 95 96
53 49 46 48 41 39 38 41 41 41 45 54 61 66 59 61 59 64 53 51 50 46 40 41 42 38 39 26 24 24 23 22 26 36 99 100 100 98 84 80 77 91 95 90 98
64 67 61 76 58 58 47 42 43 53 63 65 68 68 71 68 68 58 47 46 45 40 38 35 43 26 30 33 25 23 16 19 24 33 81 100 100 100 100 100 100 100 100 100 100
58 62 62 62 69 68 57 70 75 62 68 70 69 77 71 58 60 46 44 53 48 40 34 29 30 22 26 28 23 18 16 21 23 38 51 85 100 100 100 100 100 100 100 100 100
84 71 72 68 69 75 68 78 76 80 69 69 76 67 55 63 48 40 40 45 36 35 31 32 28 24 36 27 20 14 20 23 23 30 54 79 99 100 100 100 100 100 96 91 98
84 77 66 74 71 69 60 69 77 87 89 72 65 64 59 43 42 40 39 35 38 31 30 27 22 27 35 32 16 15 22 29 29 37 66 83 95 100 100 100 100 100 100 93 90
67 65 66 62 63 64 53 50 60 62 77 80 78 60 55 48 44 44 45 42 41 30 28 19 17 26 34 30 10 12 20 30 38 51 84 99 99 100 100 100 100 100 94 100 91
87 67 88 99 76 67 60 64 65 67 59 51 50 43 51 53 42 42 51 43 38 32 21 16 23 48 32 12 10 11 23 31 48 86 100 100 100 100 100 100 91 88 99 98 96
86 74 55 46 46 51 51 43 45 52 42 37 38 39 49 69 53 55 61 44 43 34 18 26 40 38 12 10 11 21 42 48 60 87 100 100 100 100 100 100 100 97 97 94 85
87 78 64 64 72 67 58 52 40 40 38 34 37 47 70 80 69 65 55 51 42 34 15 42 39 14 10 13 16 28 46 54 77 89 93 100 100 100 100 100 100 99 90 92 82
70 88 78 66 59 59 59 56 53 48 48 38 41 61 82 76 73 60 63 49 35 25 18 49 20 10 14 17 32 46 56 85 100 100 100 100 100 100 100 100 100 99 90 88 78
58 60 54 47 51 52 62 62 50 47 60 62 78 90 82 68 61 64 56 42 28 14 39 40 10 12 20 42 75 88 100 100 100 100 100 100 100 100 100 100 87 89 88 66 40
72 67 56 50 53 57 66 81 77 75 85 98 91 89 89 82 75 59 48 32 17 16 55 15 11 17 47 87 99 100 100 100 100 100 100 100 100 100 100 96 91 80 51 35 38
98 81 89 98 90 90 98 100 100 95 93 88 82 75 68 61 65 60 44 24 13 37 42 11 13 35 84 94 98 100 100 100 100 100 100 98 100 100 100 91 66 45 42 38 27
100 100 100 100 100 97 100 95 88 82 78 58 53 41 40 45 45 42 45 18 13 52 19 12 22 52 84 90 98 100 100 100 100 100 100 100 100 99 89 76 55 47 45 33 18
100 99 100 100 100 92 91 89 88 79 72 64 29 24 27 35 48 39 31 13 20 63 12 14 36 78 95 100 100 100 100 100 100 100 100 100 95 94 85 69 60 49 37 19 15
100 100 100 100 100 98 93 87 69 73 64 43 21 19 26 33 37 30 22 14 45 49 11 16 44 89 100 100 100 100 100 100 100 100 100 98 92 81 66 56 54 46 25 21 10
90 89 79 82 81 84 83 66 63 53 28 17 22 24 22 27 29 23 12 30 68 19 12 21 61 90 100 100 100 100 100 100 100 100 99 93 88 75 58 52 47 28 24 16 11
55 51 53 66 57 58 29 26 29 15 13 17 24 23 27 26 19 12 16 54 38 12 14 31 70 90 100 100 100 100 100 100 100 100 100 95 77 57 54 53 38 25 20 12 10
30 22 26 27 22 24 26 22 14 13 14 15 21 25 24 18 10 13 39 40 13 12 20 42 75 95 100 100 100 100 100 100 100 98 88 72 66 64 60 50 39 23 17 12 8
20 18 18 16 17 21 14 10 11 15 15 19 21 16 13 10 12 23 35 16 12 13 28 53 80 99 100 100 100 100 100 95 88 88 88 75 69 67 66 58 40 22 14 10 8
16 14 13 11 10 8 9 10 12 13 14 18 13 11 10 13 19 24 18 12 13 18 38 55 76 98 100 100 100 100 98 92 92 83 85 80 72 72 61 60 32 23 12 8 9
12 11 10 8 8 8 8 9 11 11 10 10 10 10 13 16 24 18 14 14 17 24 50 62 68 78 97 98 98 98 87 85 93 95 91 80 86 70 70 51 28 20 11 8 9
10 9 8 8 8 8 8 9 9 10 8 9 9 12 17 22 22 16 13 14 24 40 56 58 55 77 88 85 100 99 92 96 88 79 86 92 86 81 66 44 26 16 11 8 9
9 8 8 8 7 7 7 8 8 8 8 8 10 17 19 20 16 14 15 19 30 47 67 51 46 65 80 89 93 91 86 86 82 98 99 89 83 77 57 38 24 14 10 10 9
8 8 8 9 7 7 7 7 7 8 8 9 15 16 16 14 14 13 20 26 42 58 70 57 58 64 74 85 87 84 88 98 100 100 91 91 92 67 51 34 23 14 9 11 10
9 9 9 10 7 7 7 7 7 8 9 13 16 15 14 14 15 19 33 47 52 70 71 61 62 61 78 90 93 94 98 93 95 91 88 99 78 60 46 29 22 14 9 12 10
Wind_Speed
52 53 55 56 54 52 48 49 48 47 51 51 52 48 56 57 59 59 62 62 64 66 68 69 67 69 69 66 62 63 66 63 60 61 68 67 65 66 68 68 67 69 68 68 71
50 54 51 52 49 52 52 54 52 51 53 53 55 54 56 58 58 63 64 64 65 68 71 74 77 74 74 70 69 66 68 64 60 61 67 71 71 69 69 70 72 73 73 72 74
46 47 45 48 50 51 51 52 52 49 49 50 55 60 61 60 66 64 63 65 67 68 79 82 84 78 72 74 69 66 63 64 59 62 65 71 72 74 73 74 76 75 77 78 78
50 47 49 49 54 54 53 53 55 54 52 54 58 62 65 66 64 67 72 75 76 80 81 85 90 76 71 69 67 63 60 59 60 63 66 69 73 73 75 73 75 78 78 78 81
51 54 55 54 53 54 56 55 58 57 59 62 64 69 72 67 71 77 78 80 83 83 89 91 88 70 65 63 64 59 58 57 62 63 66 69 70 71 76 76 74 78 78 78 83
57 57 57 58 57 60 59 61 64 64 65 67 72 74 76 77 81 84 86 85 88 87 95 89 80 67 61 58 60 54 56 56 56 61 66 67 64 71 75 76 76 76 80 82 83
62 61 61 62 65 64 66 66 68 71 72 75 77 83 84 83 85 88 87 86 84 87 94 82 71 64 54 56 54 51 52 53 55 61 62 64 64 69 73 75 80 78 80 82 88
71 68 69 72 71 72 74 71 72 74 75 80 83 81 79 82 83 77 80 84 85 93 88 71 62 52 50 52 50 50 50 50 56 57 59 64 67 69 75 78 79 79 79 83 91
76 75 74 77 78 79 79 79 79 79 78 76 79 85 87 86 85 83 85 81 91 95 80 62 55 51 47 46 48 47 46 47 52 57 58 62 68 68 71 75 79 77 80 86 94
81 79 79 79 82 87 85 82 84 85 85 84 88 87 87 89 85 88 85 89 90 94 71 57 56 48 43 42 44 43 44 44 45 51 57 61 64 67 70 74 76 78 82 89 94
84 85 87 85 86 86 88 88 89 87 92 91 90 87 87 83 85 91 92 93 91 81 62 55 49 44 39 34 35 38 40 38 38 41 51 56 60 63 68 74 73 79 83 88 96
90 91 90 88 89 90 91 92 90 91 90 92 90 90 89 85 89 92 95 94 83 69 55 48 43 40 32 27 27 29 31 32 35 39 46 52 55 59 65 69 74 77 83 91 95
98 97 97 96 94 94 91 91 91 93 91 90 90 92 92 90 93 93 92 91 70 59 51 42 39 33 26 24 26 28 29 28 32 40 48 53 57 63 64 68 73 80 87 85 86
97 95 92 88 87 85 85 86 90 94 95 96 95 97 96 93 94 91 90 81 60 52 45 37 34 28 24 24 22 23 26 34 36 41 46 48 51 57 61 69 75 80 80 82 80
89 92 95 95 95 92 94 92 94 98 104 106 106 106 99 92 86 85 86 72 57 47 38 34 30 28 25 23 20 24 30 33 39 45 45 48 54 58 62 70 75 77 82 80 74
101 101 101 103 101 100 99 101 102 106 113 115 112 103 90 86 88 86 76 64 49 43 33 32 27 27 24 23 27 29 31 33 38 43 45 49 54 57 62 69 75 77 73 68 69
109 109 110 112 111 110 109 109 114 114 120 116 97 80 78 74 75 68 64 55 42 37 31 30 27 28 27 27 33 34 33 34 38 40 44 49 54 59 65 67 69 70 65 63 61
117 117 118 118 117 117 118 117 118 115 104 91 78 69 66 62 60 59 53 45 40 31 30 29 27 27 28 29 34 36 37 39 41 43 46 49 53 59 63 60 62 60 56 60 55
118 120 121 120 118 117 108 93 91 87 80 72 67 62 57 52 51 51 46 41 35 28 28 28 26 27 29 30 34 33 35 39 41 43 45 50 57 58 55 56 57 53 53 54 50
111 107 107 108 100 93 83 81 76 70 63 58 52 49 49 51 47 42 40 37 30 27 27 28 26 27 31 30 29 33 35 37 39 40 43 49 51 51 54 54 53 51 50 45 41
99 90 90 83 78 77 73 65 62 56 55 50 46 43 46 43 41 38 37 32 28 27 27 27 28 30 31 31 32 34 35 37 37 40 43 47 47 50 48 48 49 48 48 39 30
83 78 76 71 63 62 60 56 54 50 46 44 44 42 41 41 38 36 33 29 27 28 26 27 27 29 31 34 35 36 37 38 40 40 42 44 44 44 43 45 46 44 45 32 22
76 74 71 65 60 56 51 49 50 46 42 41 40 38 38 38 37 34 31 28 27 28 27 28 27 26 29 31 34 35 35 36 37 39 40 39 40 39 38 43 41 40 38 26 14
70 67 64 60 57 51 46 45 45 43 40 38 37 35 36 35 34 32 29 27 27 27 26 27 27 26 25 24 25 26 28 30 32 34 35 35 33 31 36 38 35 36 30 18 6
67 63 61 59 55 48 43 44 41 38 38 35 33 32 32 32 29 30 27 27 28 26 25 25 25 25 25 25 26 26 27 28 26 29 31 28 26 32 34 33 32 32 22 11 0
65 60 56 58 52 45 42 42 38 36 36 33 32 32 30 27 28 28 26 28 28 26 23 23 23 23 24 25 25 24 25 26 26 28 24 21 26 29 29 29 29 27 16 5 6
55 48 45 52 45 42 40 39 39 35 35 33 32 33 30 26 28 26 26 29 27 25 22 22 21 22 23 24 23 23 24 25 24 20 17 20 24 25 24 25 26 23 11 0 12
Wind_Direction
299 299 298 300 304 300 300 300 301 297 297 303 307 308 309 310 308 310 310 308 309 311 310 305 303 303 296 293 287 283 280 276 272 259 258 260 262 262 261 263 265 268 269 266 266
297 298 299 299 300 300 299 300 299 299 303 305 304 307 307 306 308 310 308 309 310 311 312 311 304 303 299 294 289 281 276 272 265 259 257 259 259 260 261 264 265 268 268 268 268
297 300 303 304 301 300 299 298 298 301 300 301 301 303 303 300 300 305 309 308 307 309 313 311 311 298 294 291 288 285 275 265 259 257 255 258 259 258 260 263 267 267 269 268 268
297 297 300 302 303 301 299 299 298 297 300 301 301 300 300 300 299 302 304 310 308 311 313 311 310 296 292 289 287 280 268 254 254 251 252 254 256 262 261 264 266 268 268 270 270
295 294 297 298 300 300 298 296 296 294 298 297 296 300 302 299 300 303 304 304 307 309 311 311 308 294 288 288 286 277 262 251 251 250 248 252 256 260 261 262 268 269 270 272 274
291 291 293 296 294 294 295 294 294 291 295 294 295 298 301 301 302 303 304 305 306 307 311 308 305 294 289 290 284 275 261 250 251 247 247 251 254 258 261 262 268 272 273 274 275
293 291 292 292 292 293 291 292 292 291 289 293 295 297 298 299 304 303 304 307 309 310 311 306 300 291 288 286 277 269 259 251 245 243 245 252 254 257 261 263 267 271 273 275 275
289 290 291 292 290 290 291 292 292 291 293 292 295 298 303 304 306 308 309 310 312 310 311 305 296 291 291 283 272 264 254 247 244 242 246 252 256 258 263 265 267 273 275 278 277
286 287 289 291 290 292 292 293 292 293 292 294 296 298 301 303 304 309 310 311 314 311 309 302 294 293 286 279 271 258 246 243 245 245 244 252 257 259 263 267 270 275 279 281 282
284 284 286 290 293 293 293 294 294 294 294 295 298 300 303 304 305 308 310 312 313 312 306 298 296 290 284 276 268 255 243 243 245 247 246 249 257 260 265 267 271 278 281 282 285
280 283 286 290 290 292 293 292 293 295 294 295 297 302 304 304 304 309 312 312 312 310 301 297 294 287 280 269 265 254 245 241 241 249 250 253 260 266 268 270 274 279 281 284 284
281 283 287 289 291 291 291 293 293 292 294 298 299 299 304 304 307 310 310 311 310 306 297 295 289 284 276 267 260 251 244 244 241 245 252 255 261 266 270 275 278 279 283 286 292
281 283 284 284 285 287 288 290 291 290 291 295 297 299 300 303 304 308 309 311 307 302 294 291 287 282 271 260 254 240 240 244 251 253 255 258 263 266 274 277 280 282 285 295 299
282 282 284 284 286 285 286 288 290 293 294 294 296 297 298 302 303 303 306 308 302 296 292 286 282 277 266 251 242 242 245 244 253 254 259 265 267 271 278 283 286 289 297 302 307
280 282 283 286 287 287 290 291 293 294 296 296 294 295 295 297 300 303 303 302 298 292 288 281 276 272 261 253 248 241 244 248 251 251 260 267 272 277 282 285 290 297 303 307 308
277 280 283 287 288 288 289 291 293 293 295 297 297 294 293 295 295 301 302 297 291 288 282 273 265 257 257 249 240 234 235 242 250 254 262 269 275 280 283 287 295 302 306 310 313
278 280 282 284 286 287 290 292 293 292 294 294 294 294 293 295 296 296 298 295 286 284 275 266 256 248 253 243 241 235 237 247 254 261 268 274 279 284 288 297 301 304 311 316 322
278 281 281 281 283 286 287 289 290 291 291 290 292 294 294 294 292 294 293 290 283 278 271 262 248 240 242 245 246 248 249 254 260 266 272 279 285 290 297 302 305 309 319 320 327
280 281 281 282 283 284 288 289 288 286 288 287 289 290 292 291 288 290 291 284 279 275 265 257 244 239 235 241 243 249 252 257 264 270 278 283 286 297 301 306 309 318 324 327 323
284 285 285 284 284 284 286 285 283 283 286 286 285 284 284 285 286 286 286 279 274 272 260 253 242 235 233 239 243 249 254 260 268 276 284 289 297 300 306 313 318 323 326 332 324
282 285 283 285 283 281 283 283 280 277 280 280 276 278 278 282 282 281 279 273 273 269 255 246 239 235 232 236 241 249 256 263 273 282 287 294 299 303 311 316 320 328 330 332 327
281 283 284 285 284 283 279 276 276 272 273 270 272 275 277 275 274 273 270 270 270 263 252 245 238 236 235 237 243 250 260 269 277 284 291 295 301 308 314 321 323 331 332 331 333
281 283 283 283 282 278 276 273 269 269 268 264 263 266 267 268 266 266 266 266 265 256 247 242 240 237 237 240 247 255 264 272 280 285 290 298 304 309 319 322 328 332 334 334 339
281 280 280 279 277 274 273 267 265 261 260 257 259 262 262 259 259 262 262 262 256 251 247 242 237 237 241 245 251 259 266 272 279 285 292 298 304 312 319 322 332 334 336 338 344
277 277 277 275 271 271 268 261 259 255 252 252 255 255 254 252 254 254 254 254 249 244 241 240 236 236 241 245 251 257 265 273 281 288 289 301 309 316 322 324 339 336 342 342 76
276 274 271 268 265 265 259 257 250 245 246 248 248 247 247 248 249 249 247 247 246 239 236 238 235 237 243 249 255 261 268 273 279 280 292 305 312 319 324 328 344 340 349 347 166
270 267 260 260 258 255 253 247 242 239 240 239 241 241 241 239 241 240 239 239 239 235 232 233 229 233 237 244 250 254 260 268 276 282 295 303 311 322 325 334 349 347 356 143 168